Terminal Aerodrome Forecast
Issued by NWS

Home | Current Version | Previous Version | Text Only | Print | Product List | Glossary On
Versions: 1 2 3 4 5 6 7 8 9 10 11 12 13
000
FTUS43 KMQT 282300
TAFIWD
TAF
KIWD 282329Z 2900/2924 14005KT P6SM BKN100
     FM290600 16006KT P6SM VCSH BKN080
     FM290800 15007KT P6SM -RA OVC030
     FM291200 17005KT 5SM -RA BR OVC010
     FM291900 20009KT P6SM -SHRA BKN020
      AMD NOT SKED=

USA.gov is the U.S. government's official web portal to all federal, state and local government web resources and services.